Location: Morgan Hill
(37.1310°N, 121.6530°W)
Time: 14:44:40
(UTC-07:00)

Envisat - Visible Passes

Search period start: 22 October 2019 00:00
Search period end: 01 November 2019 00:00
Orbit: 764 x 766 km, 98.1° (Epoch: 22 October)

Date Brightness Start Highest point End Pass type
(mag) Time Alt. Az. Time Alt. Az. Time Alt. Az.
22 Oct 3.0 19:15:40 10° SSE 19:20:44 88° WSW 19:25:51 10° NNW visible
23 Oct 3.4 18:39:23 10° SE 18:44:06 40° ENE 18:48:49 10° N visible
23 Oct 5.5 20:19:28 10° SW 20:23:14 21° W 20:27:00 10° NW visible
24 Oct 6.2 06:51:34 10° NE 06:54:44 16° E 06:57:53 10° SE visible
24 Oct 4.0 19:41:23 10° S 19:46:15 48° W 19:51:11 10° NNW visible
25 Oct 2.9 19:04:26 10° SSE 19:09:29 73° ENE 19:14:34 10° N visible
25 Oct 6.2 20:47:39 10° WSW 20:48:59 11° W 20:50:19 10° WNW visible
26 Oct 5.1 20:07:39 10° SSW 20:11:53 26° W 20:16:08 10° NW visible
27 Oct 6.4 06:41:14 10° ENE 06:43:21 13° E 06:45:29 10° ESE visible
27 Oct 3.5 19:29:58 10° S 19:34:58 62° W 19:40:01 10° NNW visible
28 Oct 3.1 18:53:18 10° SSE 18:58:15 57° ENE 19:03:14 10° N visible
28 Oct 6.0 20:34:51 10° SW 20:37:36 15° W 20:40:22 10° WNW visible
29 Oct 4.7 19:55:59 10° SSW 20:00:33 34° W 20:05:09 10° NNW visible
30 Oct 3.1 19:18:38 10° S 19:23:42 80° WSW 19:28:48 10° NNW visible
31 Oct 3.3 18:42:15 10° SE 18:47:02 44° ENE 18:51:51 10° N visible
31 Oct 5.6 20:22:42 10° SW 20:26:13 19° W 20:29:47 10° NW visible
